レモン彗星

C/2023 S3 ( Lemmon )

English version
Home page
Updated on September 3, 2024

---------------------------------------------------------------------

・ プロフィール

発見日 2023年9月25日
発見光度 19.9等
発見者 Mt. Lemmon

・ 写真集

・ 軌道要素

Epoch 2024 Oct. 17.0 TT = JDT 2460600.5
T 2024 Jan. 19.63152 TT                                 Rudenko
q   0.8299685            (2000.0)            P               Q
n   0.00648367     Peri.  281.56381     +0.49196792     -0.70302981
a  28.4831944      Node   233.83304     -0.30987804     -0.69262491
e   0.9708611      Incl.  140.49751     -0.81359889     -0.16130659
P 152
>From 675 observations 2023 Sept. 25-2024 May 25, mean residual 0".4.

・ 星図

・ 光度変化

        m1 = 16.0 + 5 logΔ + 10.0 log r  [   ,-72]  (              〜2023年11月 8日)
        m1 = 12.5 + 5 logΔ + 30.0 log r  [-72, 60]  (2023年11月 8日〜2024年 3月19日)
        m1 = 15.0 + 5 logΔ + 10.0 log r  [ 60,   ]  (2024年 3月19日〜              )

---------------------------------------------------------------------

軌道要素はM.P.E.C. 2024-P23に掲載されたものです。
星図はステラナビゲータ Ver.11 (アストロアーツ) で作成したものです。
光度グラフはComet for Windowsで作成したものです。

---------------------------------------------------------------------

Copyright(C) Seiichi Yoshida (comet@aerith.net). All rights reserved.